FW9148 Weather Reports


time (UTC)temp
F
wind
direction
speed
knots
gust
knots
rain 1hr
in
rain 24hr
in
rain mn
in
humidity
%
barometer
mb
20260504213106 69 250 0.0 1.7 0.00 0.00 0.00 38 1006.4
20260504211600 71 255 0.9 1.7 0.00 0.00 0.00 38 1006.4
20260504210056 71 186 0.0 2.6 0.00 0.00 0.00 38 1006.3
20260504204601 70 278 0.9 1.7 0.00 0.00 0.00 36 1006.4
20260504203102 69 219 0.9 1.7 0.00 0.00 0.00 38 1006.3
20260504201601 70 252 0.0 2.6 0.00 0.00 0.00 37 1006.2
20260504200055 71 272 0.9 2.6 0.00 0.00 0.00 35 1006.2
20260504194556 71 226 0.0 2.6 0.00 0.00 0.00 38 1006.3
20260504193055 69 268 0.0 2.6 0.00 0.00 0.00 36 1006.5
20260504191605 70 265 0.0 5.2 0.00 0.00 0.00 37 1006.4
20260504190100 73 220 0.9 1.7 0.00 0.00 0.00 33 1006.5
20260504184555 73 262 0.9 6.1 0.00 0.00 0.00 34 1006.7
20260504183106 73 233 0.9 2.6 0.00 0.00 0.00 34 1006.9
20260504181600 73 234 1.7 7.0 0.00 0.00 0.00 33 1007.1
20260504174555 72 220 1.7 3.5 0.00 0.00 0.00 35 1007.2
20260504173055 73 229 0.9 2.6 0.00 0.00 0.00 33 1007.3
20260504171553 72 227 0.9 3.5 0.00 0.00 0.00 37 1007.3
20260504160107 69 263 0.9 3.5 0.00 0.00 0.00 39 1007.8
20260504081556 40 0 0.0 0.0 0.00 0.00 0.00 86 1010.2
20260504080106 40 0 0.0 0.0 0.00 0.00 0.00 86 1010.2
20260504050105 35 0 0.0 0.0 0.00 0.01 0.00 89 1010.2
20260504044557 32 0 0.0 0.0 0.00 0.01 0.00 93 1010.2
20260504043054 31 0 0.0 0.0 0.00 0.01 0.00 92 1010.2
20260504041549 30 0 0.0 0.0 0.00 0.01 0.00 91 1010.1
20260504040056 31 0 0.0 0.0 0.00 0.01 0.00 90 1010.0
20260504034552 31 0 0.0 0.0 0.00 0.01 0.01 89 1009.9
20260504033054 32 0 0.0 0.0 0.00 0.01 0.01 88 1009.9
20260504031554 33 0 0.0 0.0 0.00 0.01 0.01 88 1009.8
20260504030054 33 0 0.0 0.0 0.00 0.01 0.01 87 1009.8
20260504024608 34 0 0.0 0.0 0.00 0.01 0.01 87 1009.8
20260504023057 34 0 0.0 0.0 0.00 0.01 0.01 86 1009.8
20260504021554 34 0 0.0 0.0 0.00 0.01 0.01 85 1009.8
20260504020054 35 0 0.0 0.0 0.00 0.01 0.01 84 1009.8
20260504014604 35 0 0.0 0.0 0.00 0.01 0.01 85 1009.6
20260504013056 35 0 0.0 0.0 0.00 0.01 0.01 85 1009.4
20260504011559 36 0 0.0 0.0 0.00 0.01 0.01 81 1009.4
20260504010105 37 0 0.0 0.0 0.00 0.01 0.01 80 1009.2
20260504004553 38 0 0.0 0.0 0.00 0.01 0.01 75 1009.1
20260504003058 40 0 0.0 0.0 0.00 0.01 0.01 71 1009.0
20260504001600 42 0 0.0 0.0 0.00 0.01 0.01 64 1008.8
20260504000139 44 0 0.0 0.0 0.00 0.01 0.01 63 1008.6
20260503234601 46 0 0.0 0.0 0.00 0.01 0.01 58 1008.5
20260503233054 47 0 0.0 1.7 0.00 0.01 0.01 56 1008.3
20260503231555 48 104 0.0 0.9 0.00 0.01 0.01 52 1008.2
20260503230055 49 273 0.9 2.6 0.00 0.01 0.01 48 1008.0
20260503224552 49 285 0.0 2.6 0.00 0.01 0.01 49 1007.9
20260503223057 50 155 0.0 4.3 0.00 0.01 0.01 50 1007.9
20260503221558 51 309 1.7 8.7 0.00 0.01 0.01 43 1007.6
20260503220057 51 269 1.7 7.0 0.00 0.01 0.01 44 1007.5
20260503214553 52 295 1.7 6.1 0.00 0.02 0.01 43 1007.4